CW4611 Weather Reports


Display with metric or nautical units.
time (UTC)temp
F
wind
direction
speed
MPH
gust
MPH
rain 1hr
in
rain 24hr
in
rain mn
in
humidity
%
barometer
mb
20181017064605 32 49 2.0 6.0 0.00 0.00 0.00 70 1032.9
20181017064106 32 42 2.0 6.0 0.00 0.00 0.00 70 1032.9
20181017063605 32 24 1.0 3.0 0.00 0.00 0.00 70 1032.9
20181017063105 32 17 2.0 5.0 0.00 0.00 0.00 69 1032.9
20181017061605 32 92 1.0 6.0 0.00 0.00 0.00 69 1033.2
20181017061108 32 28 1.0 3.0 0.00 0.00 0.00 68 1033.2
20181017060606 33 28 1.0 3.0 0.00 0.00 0.00 68 1033.2
20181017060105 33 30 2.0 5.0 0.00 0.00 0.00 69 1033.2
20181017054606 33 5 1.0 3.0 0.00 0.00 0.00 68 1033.2
20181017054105 33 5 0.0 0.0 0.00 0.00 0.00 68 1033.2
20181017053605 33 5 0.0 1.0 0.00 0.00 0.00 67 1033.1
20181017053105 33 5 0.0 5.0 0.00 0.00 0.00 67 1033.1
20181017051605 34 13 0.0 3.0 0.00 0.00 0.00 67 1033.2
20181017051105 34 13 0.0 3.0 0.00 0.00 0.00 66 1033.2
20181017050605 34 13 3.0 3.0 0.00 0.00 0.00 66 1033.1
20181017050106 34 14 1.0 3.0 0.00 0.00 0.00 65 1033.2
20181017044605 35 14 0.0 2.0 0.00 0.00 0.00 64 1033.1
20181017044105 35 14 1.0 3.0 0.00 0.00 0.00 64 1033.0
20181017043606 35 14 0.0 3.0 0.00 0.00 0.00 64 1033.0
20181017043105 35 5 3.0 6.0 0.00 0.00 0.00 64 1033.0
20181017041605 36 55 3.0 9.0 0.00 0.00 0.00 63 1033.0
20181017041105 36 44 3.0 5.0 0.00 0.00 0.00 62 1033.1
20181017040605 36 356 2.0 5.0 0.00 0.00 0.00 62 1033.1
20181017040105 36 22 3.0 6.0 0.00 0.00 0.00 62 1033.2
20181017034605 36 78 1.0 6.0 0.00 0.00 0.00 62 1033.1
20181017034105 36 43 2.0 5.0 0.00 0.00 0.00 63 1033.1
20181017033605 35 42 3.0 6.0 0.00 0.00 0.00 64 1033.1
20181017033105 35 30 3.0 6.0 0.00 0.00 0.00 64 1033.1
20181017031605 35 346 0.0 3.0 0.00 0.00 0.00 63 1032.9
20181017031105 36 345 2.0 3.0 0.00 0.00 0.00 62 1032.9
20181017030605 36 345 1.0 3.0 0.00 0.00 0.00 62 1032.9
20181017030105 36 345 0.0 0.0 0.00 0.00 0.00 61 1032.9
20181017024605 37 345 0.0 3.0 0.00 0.00 0.00 60 1032.9
20181017024105 37 345 0.0 0.0 0.00 0.00 0.00 60 1032.8
20181017023605 37 345 0.0 0.0 0.00 0.00 0.00 59 1032.8
20181017023105 38 344 0.0 5.0 0.00 0.00 0.00 59 1032.8
20181017021606 38 339 3.0 3.0 0.00 0.00 0.00 58 1032.6
20181017021105 39 336 1.0 3.0 0.00 0.00 0.00 57 1032.5
20181017020605 39 337 2.0 3.0 0.00 0.00 0.00 57 1032.5
20181017020105 39 336 2.0 5.0 0.00 0.00 0.00 56 1032.4
20181017014605 41 11 1.0 3.0 0.00 0.00 0.00 53 1032.3
20181017014105 41 12 1.0 3.0 0.00 0.00 0.00 53 1032.2
20181017013605 41 12 1.0 3.0 0.00 0.00 0.00 52 1032.1
20181017013105 42 12 2.0 5.0 0.00 0.00 0.00 52 1032.0
20181017011606 44 244 0.0 2.0 0.00 0.00 0.00 48 1031.9
20181017011106 44 227 0.0 0.0 0.00 0.00 0.00 48 1031.9
20181017010606 45 224 0.0 0.0 0.00 0.00 0.00 47 1031.8
20181017010105 45 224 0.0 0.0 0.00 0.00 0.00 46 1031.7
20181017004605 47 221 0.0 2.0 0.00 0.00 0.00 45 1031.5
20181017004105 47 142 0.0 3.0 0.00 0.00 0.00 44 1031.5
20181017003605 48 127 0.0 0.0 0.00 0.00 0.00 43 1031.4
20181017003105 48 127 1.0 3.0 0.00 0.00 0.00 43 1031.3
20181017001605 49 127 1.0 3.0 0.00 0.00 0.00 42 1031.2
20181017001105 49 67 2.0 3.0 0.00 0.00 0.00 41 1031.2
20181017000605 49 67 1.0 5.0 0.00 0.00 0.00 41 1031.2
20181017000104 49 0 7.0 12.0 0.00 0.00 0.00 41 1031.0
20181016234605 50 355 6.0 12.0 0.00 0.00 0.00 39 1031.0
20181016234105 50 330 5.0 12.0 0.00 0.00 0.00 39 1031.0
20181016233605 51 340 5.0 12.0 0.00 0.00 0.00 38 1031.0
20181016233104 51 323 5.0 12.0 0.00 0.00 0.00 38 1031.0
20181016231605 51 1 5.0 9.0 0.00 0.00 0.00 38 1031.1
20181016231105 51 14 6.0 12.0 0.00 0.00 0.00 38 1031.1
20181016230604 51 353 5.0 14.0 0.00 0.00 0.00 39 1031.2
20181016230105 51 357 6.0 15.0 0.00 0.00 0.00 38 1031.2
20181016224605 52 342 10.0 16.0 0.00 0.00 0.00 37 1031.5
20181016224105 52 34 4.0 10.0 0.00 0.00 0.00 37 1031.5
20181016223605 52 345 6.0 14.0 0.00 0.00 0.00 37 1031.6
20181016223105 52 9 5.0 12.0 0.00 0.00 0.00 36 1031.5
20181016221605 53 342 6.0 12.0 0.00 0.00 0.00 37 1031.7
20181016221105 53 0 6.0 15.0 0.00 0.00 0.00 37 1031.8
20181016220605 53 355 6.0 12.0 0.00 0.00 0.00 36 1031.8
20181016220105 53 349 7.0 14.0 0.00 0.00 0.00 37 1031.9
20181016214605 54 6 5.0 12.0 0.00 0.00 0.00 37 1031.8
20181016214104 54 279 5.0 17.0 0.00 0.00 0.00 37 1031.9
20181016213605 54 307 3.0 13.0 0.00 0.00 0.00 37 1032.0
20181016213105 54 351 6.0 15.0 0.00 0.00 0.00 37 1032.1
20181016211605 54 309 7.0 13.0 0.00 0.00 0.00 37 1032.2
20181016211105 54 275 6.0 12.0 0.00 0.00 0.00 36 1032.2
20181016210604 54 321 5.0 14.0 0.00 0.00 0.00 37 1032.3
20181016210105 53 317 3.0 15.0 0.00 0.00 0.00 36 1032.2
20181016204605 54 284 2.0 12.0 0.00 0.00 0.00 36 1032.4
20181016204105 54 317 5.0 14.0 0.00 0.00 0.00 37 1032.5
20181016203605 54 258 5.0 12.0 0.00 0.00 0.00 37 1032.6
20181016203104 54 309 3.0 13.0 0.00 0.00 0.00 37 1032.6
20181016201605 53 286 5.0 12.0 0.00 0.00 0.00 38 1032.8
20181016201105 53 274 4.0 14.0 0.00 0.00 0.00 37 1032.9
20181016200605 54 253 5.0 12.0 0.00 0.00 0.00 37 1032.9
20181016200105 54 46 5.0 14.0 0.00 0.00 0.00 37 1032.9
20181016194604 54 138 5.0 10.0 0.00 0.00 0.00 39 1033.1
20181016194105 53 145 5.0 16.0 0.00 0.00 0.00 39 1033.2
20181016193604 52 144 3.0 10.0 0.00 0.00 0.00 39 1033.4
20181016193105 52 175 5.0 12.0 0.00 0.00 0.00 39 1033.6
20181016191604 52 131 2.0 12.0 0.00 0.00 0.00 40 1033.9
20181016191104 52 207 3.0 12.0 0.00 0.00 0.00 39 1034.1
20181016190604 52 181 5.0 10.0 0.00 0.00 0.00 39 1034.3
20181016190104 51 216 3.0 10.0 0.00 0.00 0.00 40 1034.5
20181016184605 50 193 4.0 10.0 0.00 0.00 0.00 39 1034.7
20181016184105 50 194 4.0 7.0 0.00 0.00 0.00 40 1034.7
20181016183605 49 173 3.0 7.0 0.00 0.00 0.00 40 1034.8
20181016183104 49 129 4.0 9.0 0.00 0.00 0.00 40 1034.9
20181016181605 48 182 3.0 8.0 0.00 0.00 0.00 42 1035.0
20181016181105 49 163 4.0 7.0 0.00 0.00 0.00 39 1035.1
20181016180605 48 205 3.0 7.0 0.00 0.00 0.00 42 1035.2
20181016180105 48 191 5.0 12.0 0.00 0.00 0.00 41 1035.3
20181016174605 47 192 3.0 6.0 0.00 0.00 0.00 43 1035.5
20181016174105 46 169 3.0 9.0 0.00 0.00 0.00 44 1035.6
20181016173605 46 157 4.0 10.0 0.00 0.00 0.00 44 1035.6
20181016173104 45 212 4.0 10.0 0.00 0.00 0.00 45 1035.8
20181016171605 44 194 2.0 7.0 0.00 0.00 0.00 48 1035.9
20181016171106 43 147 2.0 9.0 0.00 0.00 0.00 48 1035.8
20181016170605 42 220 2.0 9.0 0.00 0.00 0.00 48 1035.9
20181016170105 42 167 2.0 7.0 0.00 0.00 0.00 50 1035.9
20181016164604 40 219 2.0 5.0 0.00 0.00 0.00 54 1036.0
20181016164105 40 194 2.0 6.0 0.00 0.00 0.00 54 1036.0
20181016163604 40 182 3.0 6.0 0.00 0.00 0.00 53 1036.1
20181016163105 40 170 3.0 6.0 0.00 0.00 0.00 55 1036.1
20181016161605 38 193 1.0 5.0 0.00 0.00 0.00 59 1036.2
20181016161104 37 146 1.0 5.0 0.00 0.00 0.00 60 1036.3
20181016160604 36 188 2.0 5.0 0.00 0.00 0.00 61 1036.3
20181016160104 36 194 3.0 5.0 0.00 0.00 0.00 62 1036.5
20181016154604 34 127 1.0 3.0 0.00 0.00 0.00 65 1036.6
20181016154105 33 127 0.0 0.0 0.00 0.00 0.00 65 1036.6
20181016153604 33 127 0.0 0.0 0.00 0.00 0.00 66 1036.6
20181016153104 32 127 1.0 6.0 0.00 0.00 0.00 66 1036.5
20181016151605 31 106 3.0 5.0 0.00 0.00 0.00 67 1036.7
20181016151104 31 107 0.0 2.0 0.00 0.00 0.00 68 1036.7
20181016150604 30 107 1.0 3.0 0.00 0.00 0.00 68 1036.7
20181016150105 30 89 2.0 9.0 0.00 0.00 0.00 70 1036.7
20181016144605 29 40 0.0 1.0 0.00 0.00 0.00 73 1037.0
20181016144104 28 40 3.0 5.0 0.00 0.00 0.00 74 1037.0
20181016143604 27 33 2.0 3.0 0.00 0.00 0.00 75 1037.1
20181016143104 26 34 0.0 6.0 0.00 0.00 0.00 75 1037.2
20181016141604 26 11 0.0 0.0 0.00 0.00 0.00 73 1037.2
20181016141105 26 11 2.0 6.0 0.00 0.00 0.00 73 1037.0
20181016140605 26 42 0.0 0.0 0.00 0.00 0.00 72 1037.1
20181016140104 26 42 0.0 0.0 0.00 0.00 0.00 72 1037.1
20181016134604 27 42 0.0 0.0 0.00 0.00 0.00 71 1037.1
20181016134104 27 42 0.0 2.0 0.00 0.00 0.00 71 1037.1
20181016133605 27 42 0.0 2.0 0.00 0.00 0.00 72 1037.0
20181016133104 27 42 0.0 7.0 0.00 0.00 0.00 71 1036.9
20181016131604 27 22 0.0 0.0 0.00 0.00 0.00 71 1036.8
20181016131104 27 22 0.0 0.0 0.00 0.00 0.00 71 1036.8
20181016130604 27 22 0.0 3.0 0.00 0.00 0.00 71 1036.8
20181016130104 27 26 2.0 7.0 0.00 0.00 0.00 71 1036.8
20181016124604 27 9 0.0 0.0 0.00 0.00 0.00 71 1036.8
20181016124104 27 9 0.0 0.0 0.00 0.00 0.00 71 1036.8
20181016123605 27 9 0.0 5.0 0.00 0.00 0.00 70 1036.8
20181016123105 27 0 2.0 3.0 0.00 0.00 0.00 70 1036.8
20181016121605 28 5 2.0 8.0 0.00 0.00 0.00 70 1037.0
20181016121106 28 25 3.0 5.0 0.00 0.00 0.00 70 1037.0
20181016120606 28 80 2.0 5.0 0.00 0.00 0.00 70 1037.1
20181016120105 28 79 0.0 9.0 0.00 0.00 0.00 70 1037.1
20181016114605 26 63 3.0 7.0 0.00 0.00 0.00 73 1037.2
20181016114105 26 79 0.0 3.0 0.00 0.00 0.00 73 1037.1
20181016113605 26 82 1.0 6.0 0.00 0.00 0.00 72 1037.1
20181016113104 26 37 2.0 6.0 0.00 0.00 0.00 71 1037.2
20181016111604 26 35 0.0 0.0 0.00 0.00 0.00 71 1037.3
20181016111104 26 35 0.0 0.0 0.00 0.00 0.00 70 1037.3
20181016110604 26 35 0.0 0.0 0.00 0.00 0.00 70 1037.4
20181016110106 27 35 0.0 3.0 0.00 0.00 0.00 70 1037.4
20181016104604 27 36 0.0 0.0 0.00 0.00 0.00 69 1037.3
20181016104104 27 36 0.0 0.0 0.00 0.00 0.00 69 1037.2
20181016103604 28 36 0.0 2.0 0.00 0.00 0.00 69 1037.2
20181016103104 28 36 1.0 3.0 0.00 0.00 0.00 68 1037.2
20181016101604 28 36 2.0 5.0 0.00 0.00 0.00 67 1037.4
20181016101104 28 17 2.0 3.0 0.00 0.00 0.00 68 1037.4
20181016100604 28 69 3.0 6.0 0.00 0.00 0.00 66 1037.5
20181016100104 28 111 1.0 5.0 0.00 0.00 0.00 65 1037.6
20181016094604 29 5 0.0 1.0 0.00 0.00 0.00 64 1037.6
20181016094104 29 5 1.0 3.0 0.00 0.00 0.00 64 1037.7
20181016093604 29 5 0.0 2.0 0.00 0.00 0.00 64 1037.8
20181016093104 29 5 2.0 14.0 0.00 0.00 0.00 64 1037.9
20181016091605 28 39 4.0 13.0 0.00 0.00 0.00 66 1038.0
20181016091104 28 66 7.0 13.0 0.00 0.00 0.00 66 1038.0
20181016090604 28 62 3.0 10.0 0.00 0.00 0.00 66 1038.1
20181016090104 28 36 2.0 3.0 0.00 0.00 0.00 66 1038.1
20181016084605 28 35 0.0 0.0 0.00 0.00 0.00 65 1038.2
20181016084105 28 35 0.0 3.0 0.00 0.00 0.00 64 1038.3
20181016083605 28 45 0.0 3.0 0.00 0.00 0.00 64 1038.3
20181016083104 28 45 0.0 3.0 0.00 0.00 0.00 63 1038.2
20181016081604 28 46 2.0 3.0 0.00 0.00 0.00 63 1038.1
20181016081104 28 47 1.0 3.0 0.00 0.00 0.00 63 1038.2
20181016080604 28 54 1.0 3.0 0.00 0.00 0.00 63 1038.2
20181016080104 28 55 1.0 6.0 0.00 0.00 0.00 62 1038.3
20181016074604 28 42 0.0 9.0 0.00 0.00 0.00 62 1038.3
20181016074104 28 42 2.0 3.0 0.00 0.00 0.00 63 1038.4
20181016073604 28 42 3.0 8.0 0.00 0.00 0.00 62 1038.5
20181016073104 28 73 3.0 7.0 0.00 0.00 0.00 62 1038.6
20181016071604 28 59 3.0 7.0 0.00 0.00 0.00 63 1038.8
20181016071104 28 50 3.0 6.0 0.00 0.00 0.00 63 1038.8
20181016070604 28 0 1.0 5.0 0.00 0.00 0.00 63 1038.9
20181016070104 28 3 3.0 5.0 0.00 0.00 0.00 63 1039.0